Location: Pinhead Observatory
(34.4473°N, 118.1985°W)
Time: 14:42:36
(UTC-07:00)

Daily predictions for brighter satellites

Satellite Brightness Start Highest point End
(mag) Time Altitude Azimuth Time Altitude Azimuth Time Altitude Azimuth
OAO 2 Rocket 3.8 20:34:52 10° SW 20:39:55 46° SSE 20:45:01 10° E
Cosmos 1553 Rocket 4.1 20:34:09 10° N 20:40:31 68° E 20:46:45 10° SSE
AVUM R/B 3.6 20:38:32 10° SW 20:40:43 47° WNW 20:43:07 10° NNE
H-2A R/B 3.2 20:40:03 10° SE 20:43:59 30° ENE 20:47:55 10° N
Tiangong 1 1.0 20:41:00 10° WSW 20:44:07 85° SSE 20:47:13 10° ENE
Meteor 1-21 Rocket 4.2 20:38:52 10° S 20:44:23 80° E 20:49:56 10° N
ALOS 2.5 20:39:43 10° S 20:44:23 77° W 20:49:03 10° NNW
Cosmos 1777 Rocket 4.1 20:39:21 10° SSW 20:44:36 85° WNW 20:49:54 10° NNE
YAOGAN 11 4.2 20:41:28 10° SSE 20:45:41 60° ENE 20:50:00 10° N
NOSS 3-1 (C) 3.8 20:40:52 10° S 20:46:09 39° ESE 20:51:51 10° NE
Cosmos 1328 Rocket 3.6 20:42:25 10° N 20:46:53 79° E 20:51:18 10° S
Cosmos 371 Rocket 3.7 20:42:17 10° NNW 20:47:03 65° WSW 20:51:47 10° S
Cosmos 1441 Rocket 3.5 20:48:43 10° SSW 20:52:28 68° W 20:56:13 10° N
Cosmos 2219 3.5 20:49:17 10° S 20:54:47 49° ESE 21:00:19 10° NNE
Cosmos 2292 4.4 20:57:51 10° N 21:00:55 84° W 21:04:33 10° S
OE (NEXTSAT) 4.5 21:00:22 10° WNW 21:03:56 71° SW 21:06:39 16° SE
DELTA 2 R/B (1) 3.7 20:58:43 10° WNW 21:04:17 77° NNE 21:09:25 12° ESE
Cosmos 2322 Rocket 3.2 21:00:58 10° NW 21:06:17 46° WSW 21:11:36 10° S
Cosmos 1500 Rocket 4.2 21:02:41 10° SSW 21:06:59 60° W 21:11:21 10° N
Cosmos 2322 3.9 21:02:05 10° NNW 21:07:43 58° ENE 21:12:29 14° SE
Cosmos 405 3.1 21:05:28 10° N 21:09:03 59° E 21:12:01 14° SSE
CZ-4 DEB 4.0 21:07:53 10° S 21:10:55 40° W 21:13:58 10° NNW
CZ-4B R/B 4.5 21:08:33 10° NE 21:12:59 28° E 21:16:09 16° SE
Cosmos 2360 Rocket 2.2 21:08:56 10° NNW 21:14:35 69° ENE 21:19:13 16° SSE
SL-16 R/B 3.5 21:13:24 10° NW 21:18:37 38° WSW 21:23:47 10° S
Cosmos 1908 3.3 21:15:52 10° N 21:19:47 85° W 21:23:23 12° S
Cosmos 1674 3.1 21:16:00 10° SSW 21:19:47 64° W 21:23:38 10° N
H-2A R/B 4.3 21:18:54 10° ENE 21:20:10 11° ENE 21:21:25 10° NE
SJ-11-01 4.4 21:15:35 10° S 21:20:17 76° W 21:25:01 10° NNW
Cosmos 1680 Rocket 3.6 21:15:33 10° N 21:20:47 66° ENE 21:24:44 18° SSE
Cosmos 304 Rocket 3.7 21:17:34 10° NNW 21:22:23 73° ENE 21:25:54 18° SSE
Delta 2 Rocket 3.1 21:19:21 10° W 21:23:05 71° N 21:25:46 15° E
SPOT 5 3.1 21:21:14 19° SE 21:24:18 49° ENE 21:28:55 10° N
Cosmos 2151 2.9 21:20:52 10° S 21:25:03 88° WNW 21:29:16 10° N
Cosmos 923 Rocket 4.0 21:20:37 10° NNW 21:25:50 82° WSW 21:30:09 15° SSE
YAOGAN 6 3.9 21:24:39 21° ESE 21:25:54 25° ENE 21:28:55 10° NNE
Cosmos 1898 Rocket 3.7 21:24:34 10° S 21:29:30 47° ESE 21:34:29 10° NNE
deb Chang Zheng 4 4.3 21:27:46 10° N 21:32:00 55° WNW 21:36:14 10° SSW
SPOT 1/Viking Rocket 4.4 21:29:28 20° ESE 21:32:06 33° ENE 21:36:41 10° N
Cosmos 2058 2.8 21:31:09 16° S 21:34:21 68° E 21:38:25 10° NNE
Cosmos 1300 3.3 21:34:03 10° N 21:37:42 40° E 21:38:53 31° ESE
Cosmos 2227 Rocket 3.1 21:37:26 24° SE 21:39:07 28° ESE 21:43:50 10° NE
Cosmos 2150 Rocket 4.1 21:34:39 10° S 21:40:00 63° ESE 21:45:24 10° NNE
SWAS 4.4 21:35:40 10° NNW 21:40:01 83° ENE 21:42:11 29° SSE
Cosmos 1437 4.2 21:38:18 10° SSW 21:41:23 38° W 21:44:29 10° N
Sich 1 3.3 21:40:01 27° SSE 21:42:03 47° E 21:46:17 10° NNE
Meteor 1-11 4.2 21:41:14 12° S 21:46:33 75° E 21:52:15 10° NNE
Cosmos 1633 Rocket 3.2 21:45:26 30° SSE 21:47:14 51° E 21:51:29 10° NNE
Hubble Space Telescope 2.3 21:45:29 10° SW 21:47:42 21° S 21:47:42 21° S
NOSS 3-1 (A) 3.4 21:44:47 10° SSW 21:50:34 84° WNW 21:56:57 10° NNE
Cosmos 1151 Rocket 4.2 21:47:24 10° NNW 21:51:26 40° W 21:55:09 12° SSW
USA 245 3.8 21:52:56 24° NE 21:52:56 24° NE 21:54:17 10° N
MetOp-A 4.1 21:53:41 27° SSE 21:56:44 88° ENE 22:02:06 10° NNW
ERBS 2.2 21:55:20 22° SSW 21:57:28 69° SE 22:00:57 10° NE
Cosmos 2333 Rocket 3.4 21:54:25 10° N 21:59:20 28° ENE 22:01:24 23° E
Cosmos 1939 Rocket 4.4 21:56:27 14° SSW 21:59:20 31° W 22:02:51 10° NW
Cosmos 1455 4.2 21:57:34 10° NE 21:59:30 16° ENE 21:59:30 16° ENE
H-2A R/B 3.6 21:59:33 10° SW 22:03:27 46° SSE 22:22:33 10° E
Cosmos 1805 Rocket 4.2 21:59:44 13° SSW 22:03:33 55° W 22:07:55 10° N
ARGOS 3.3 22:03:47 36° SE 22:05:52 60° ENE 22:11:10 10° N
Cosmos 2297 Rocket 2.9 22:05:33 32° ESE 22:05:54 33° ESE 22:10:52 10° NE
Terra 3.2 22:05:35 22° E 22:06:18 23° ENE 22:10:03 10° NNE
Envisat 3.9 22:02:46 16° SSW 22:06:29 43° W 22:11:19 10° NNW
CZ-4 SHROUD 4.3 22:07:31 34° SW 22:08:10 39° W 22:11:08 10° NNW
OTV 4 1.5 22:05:23 10° WSW 22:07:20 37° WSW 22:07:20 37° WSW
COSMOS 2428 2.7 22:05:36 10° NNW 22:11:18 83° WSW 22:13:39 37° SSE
Cosmos 1726 2.1 22:08:50 10° N 22:12:37 86° W 22:13:08 65° S
ATLAS 2AS CENTAUR R/B 3.0 22:06:57 17° S 22:12:39 55° ESE 22:20:21 10° NE
Cosmos 2219 Rocket 2.6 22:09:26 10° N 22:14:52 50° ENE 22:16:27 39° ESE
USA 32 4.0 22:11:09 10° N 22:16:24 67° E 22:17:50 46° SSE
SL-08 RB Rocket 3.7 22:17:05 54° ESE 22:17:50 65° ENE 22:22:17 10° N
Cosmos 220 Rocket 4.1 22:17:45 32° SSW 22:19:45 75° WNW 22:24:11 10° NNE
H-2A R/B 4.3 22:16:32 10° SW 22:19:57 21° W 22:23:24 10° NW
Tiangong 1 3.5 22:18:25 10° WNW 22:20:57 22° NNW 22:23:06 12° NE
OAO 2 Rocket 3.3 22:19:19 10° W 22:24:39 90° W 22:27:04 34° E
Cosmos 1707 Rocket 4.4 22:21:55 10° NNW 22:26:06 46° W 22:27:35 33° SW
Cosmos 1937 Rocket 3.8 22:22:42 18° SSW 22:26:32 67° WNW 22:31:43 10° N
ATLAS 3B R/B 4.1 22:23:42 10° N 22:29:21 26° NE 22:32:31 18° E
Meteor 1-4 Rocket 2.7 22:26:22 10° NNW 22:29:55 73° WNW 22:29:55 73° WNW
CZ-4C R/B 3.7 22:33:07 48° NNE 22:33:07 48° NNE 22:35:49 10° N
Cosmos 1241 Rocket 4.4 22:28:45 10° SSW 22:34:55 80° WNW 22:41:11 10° NNE
Cosmos 990 Rocket 4.0 22:33:34 38° SSW 22:35:33 79° WNW 22:40:44 10° NNE
Cosmos 1980 3.9 22:30:21 10° N 22:35:53 53° ENE 22:36:52 47° ESE
CZ-4 R/B 4.5 22:33:26 10° N 22:38:13 55° WNW 22:40:30 29° SW
Meteor 2-10 4.1 22:32:28 10° N 22:38:14 87° E 22:39:36 55° S
Cosmos 1271 Rocket 3.0 22:35:18 10° NNW 22:39:00 62° W 22:39:00 62° W
Cosmos 1470 Rocket 3.4 22:39:44 76° WSW 22:39:57 79° W 22:44:17 10° N
Cosmos 1933 Rocket 3.5 22:40:44 75° SW 22:41:02 81° W 22:45:31 10° N
Iridium 2 4.2 22:43:31 55° WNW 22:43:31 55° WNW 22:47:12 10° N
Cosmos 1703 4.2 22:43:17 39° WSW 22:43:49 42° W 22:47:33 10° N
Cosmos 2237 Rocket 2.2 22:42:31 10° NNW 22:48:11 63° ENE 22:48:54 58° ESE
Cosmos 2082 3.9 22:46:37 31° SW 22:49:25 71° WNW 22:55:09 10° NNE
Cosmos 1626 2.9 22:50:49 50° NNW 22:50:49 50° NNW 22:53:42 10° N
Nadezhda 1 Rocket 3.8 22:44:18 10° N 22:50:26 89° E 22:51:47 58° S
DELTA 2 R/B (1) 4.4 22:45:29 10° W 22:50:11 35° SW 22:50:11 35° SW
H-2A R/B 2.0 22:58:14 74° S 22:58:43 85° WSW 23:04:11 10° NNW
NOSS 0 Rocket 3.9 22:58:21 10° NNW 23:04:29 72° WSW 23:05:23 62° SSW
SeaSat 1 4.4 23:06:12 17° ENE 23:06:51 18° NE 23:10:03 10° NNE
Cosmos 1709 Rocket 3.8 23:07:14 71° SE 23:07:47 77° E 23:13:53 10° N
Lacrosse 4 Rocket 3.0 23:07:56 10° N 23:11:13 30° NE 23:11:13 30° NE
Cosmos 1125 Rocket 3.5 23:17:24 79° WNW 23:17:24 79° WNW 23:22:41 10° NNE
Cosmos 2227 Rocket 3.6 23:19:10 16° WSW 23:22:58 34° WNW 23:28:06 10° N
Cosmos 1455 4.5 23:32:33 10° NW 23:34:33 21° WNW 23:34:33 21° WNW
NOSS 2-3 (D) 4.4 23:37:09 57° NNE 23:37:09 57° NNE 23:41:33 10° NNE
Cosmos 372 Rocket 4.4 23:38:19 59° NNE 23:38:19 59° NNE 23:42:34 10° NNE
Cosmos 44 Rocket 4.0 23:41:13 55° NNE 23:41:13 55° NNE 23:45:21 10° NNE
COSMOS 2455 2.8 23:34:29 10° NNW 23:40:19 78° NE 23:40:19 78° NE
Cosmos 2181 Rocket 3.9 23:35:05 10° N 23:41:30 82° W 23:41:44 80° SW
SL-16 R/B 2.3 23:36:46 10° NNW 23:41:56 71° NNE 23:41:56 71° NNE
Cosmos 2333 Rocket 3.2 23:38:24 10° NW 23:43:25 35° W 23:43:25 35° W
Terra 3.3 23:44:28 29° W 23:44:28 29° W 23:48:01 10° NW
Cosmos 2184 Rocket 4.1 23:46:39 61° ENE 23:46:39 61° ENE 23:52:13 10° NNE
Cosmos 2297 Rocket 3.8 23:47:17 21° WSW 23:49:52 29° WNW 23:54:46 10° N
